Location: Croisilles
(50.1998°N, 2.8793°E)
Time: 20:57:46
(UTC+00:00)

Cosmos 1455 - Pass Details

Date: 21 January 2021
Orbit: 499 x 520 km, 82.5° (Epoch: 02 March)

Event Time Altitude Azimuth Distance (km) Brightness Sun altitude
Rises 18:37:45 0° 344° (NNW) 2,631 5.9 -21.0°
Reaches altitude 10° 18:39:56 10° 338° (NNW) 1,743 5.0 -21.3°
Maximum altitude 18:43:36 45° 266° (W) 711 3.3 -21.9°
Drops below altitude 10° 18:47:15 10° 193° (SSW) 1,741 5.1 -22.5°
Sets 18:49:25 0° 187° (S) 2,626 5.9 -22.9°
